Regional Weather Roundup
Issued by NWS

Home | Current Version | Previous Version | Graphics & Text | Print | Product List | Glossary On
Versions: 1 2 3 4 5 6 7 8 9 10 11 12 13 14 15 16 17 18 19 20 21 22 23 24 25 26 27 28 29 30 31 32 33 34 35 36 37 38 39 40 41 42 43 44 45 46 47 48 49 50
000
ASUS43 KMKX 191110
RWRWI

WISCONSIN REGIONAL WEATHER ROUNDUP
NATIONAL WEATHER SERVICE MILWAUKEE/SULLIVAN WI
600 AM CDT THU APR 19 2018

NOTE: "FAIR" INDICATES FEW OR NO CLOUDS BELOW 12,000 FEET WITH NO
SIGNIFICANT WEATHER AND/OR OBSTRUCTIONS TO VISIBILITY.

WIZ001-002-006>008-014>016-023>028-191200-
NORTHWEST WISCONSIN

CITY           SKY/WX    TMP DP  RH WIND       PRES   REMARKS
SUPERIOR ARPT  FAIR      21  16  79 S3        30.35R
ASHLAND        FAIR      20  13  74 CALM      30.33R
HAYWARD        FAIR      13  10  88 CALM      30.32R
SIREN          FAIR      20  15  81 CALM      30.36R
CUMBERLAND     FAIR      21  10  63 N3        30.32R
RICE LAKE      FAIR      20  16  82 CALM      30.34R
CHETEK         FAIR      22  16  77 NW3       30.32R
LADYSMITH      FAIR      23  15  70 CALM      30.31R
EAU CLAIRE     FAIR      20  14  77 W3        30.31R
MENOMONIE      FAIR      26  16  64 W5        30.33R WCI  21
NEW RICHMOND   FAIR      22  14  70 NW7       30.36R WCI  14
OSCEOLA        FAIR      19  13  80 CALM      30.40R
$$

WIZ003>005-009-010-017-018-191200-
NORTH CENTRAL WISCONSIN

CITY           SKY/WX    TMP DP  RH WIND       PRES   REMARKS
MANITOWISH WTR FAIR      16  16 100 CALM      30.27R
ARBOR VITAE    FAIR      19  16  86 CALM      30.26R
WOODRUFF       FAIR      19  16  86 CALM      30.26R
RHINELANDER    FAIR      27  18  69 N5        30.25R WCI  22
EAGLE RIVER    FAIR      17  15  89 CALM      30.23R
LAND O LAKES   FAIR      26  20  77 N6        30.26R WCI  20
PHILLIPS       FAIR      21  15  79 CALM      30.27R
TOMAHAWK       FAIR      23  15  72 NW3       30.27R
MEDFORD        FAIR      25  15  65 N5        30.26R WCI  19
MERRILL          N/A     22  15  74 N3        30.26R
$$

WIZ029-030-035-036-043>047-191200-
CENTRAL WISCONSIN

CITY           SKY/WX    TMP DP  RH WIND       PRES   REMARKS
WAUSAU         FAIR      27  16  63 NW7       30.24R WCI  19
MOSINEE        CLEAR     27  18  69 N12       30.25R WCI  16
MARSHFIELD     FAIR      20  12  71 N6        30.24R WCI  12
STEVENS POINT  FAIR      26  15  61 N6        30.25R WCI  20
WAUPACA        FAIR      29  16  59 NW5       30.23R WCI  24
WAUTOMA        FAIR      20  15  81 CALM      30.25R
WISC RAPIDS    FAIR      22  12  65 NW5       30.27R WCI  16
CAMP DOUGLAS   FAIR      18  17  96 W8        30.28R WCI   8
$$

WIZ011>013-019>022-031-037>040-048>050-191200-
NORTHEAST WISCONSIN

CITY           SKY/WX    TMP DP  RH WIND       PRES   REMARKS
ANTIGO         FAIR      24  15  68 N6        30.22R WCI  17
SHAWANO        FAIR      32  19  57 N3        30.22R
OCONTO         FAIR      30  19  61 N7        30.21R WCI  23
STURGEON BAY   FAIR      30  23  75 N14       30.19R WCI  19
GREEN BAY      FAIR      30  19  63 N10       30.21R WCI  21
MANITOWOC      FAIR      30  22  72 N12       30.19R WCI  20
APPLETON       CLEAR     28  16  59 NW10      30.19R WCI  19
CLINTONVILLE   FAIR      25  14  63 NW5       30.23R WCI  19
OSHKOSH        FAIR      27  17  66 NW8       30.21R WCI  19
$$

WIZ032>034-041-042-053>061-191200-
SOUTHWEST WISCONSIN

CITY           SKY/WX    TMP DP  RH WIND       PRES   REMARKS
LA CROSSE      FAIR      25  23  92 N7        30.32R WCI  17
SPARTA         FAIR      10   8  92 CALM      30.31R
VIROQUA        FAIR      26  22  87 N6        30.27R WCI  19
BOSCOBEL       FAIR      24  20  84 CALM      30.29R
PRAIRIE DU CHI FAIR      27  26  96 CALM      30.30R
PLATTEVILLE    FAIR      27  26  96 NW9       30.26R WCI  17
$$

WIZ056-057-062-063-064-067-068-191200-
SOUTH CENTRAL WISCONSIN

CITY           SKY/WX    TMP DP  RH WIND       PRES   REMARKS
REEDSBURG      FAIR      22  22  98 CALM      30.26R
BARABOO/DELLS  FAIR      23  21  93 CALM      30.26R
LONE ROCK      FAIR      22  21  96 W7        30.28R WCI  13
MINERAL POINT  FAIR      28  28 100 N10       30.24R WCI  19
MADISON        FAIR      24  19  81 N8        30.22R WCI  15
MIDDLETON      FAIR      27  20  76 NW10      30.24R WCI  17
WATERTOWN      FAIR      24  20  87 NW3       30.20R
MONROE         FAIR      28  23  80 NW7       30.21R WCI  21
JANESVILLE     CLEAR     28  23  80 N9        30.21R WCI  20
$$

WIZ051-052-058>065-066-070>072-191200-
SOUTHEAST WISCONSIN

CITY           SKY/WX    TMP DP  RH WIND       PRES   REMARKS
MILWAUKEE      FAIR      31  22  69 NW9       30.17R WCI  23
WAUKESHA       CLEAR     25  19  80 NW7       30.19R WCI  17
MILWAUKEE/TIMM FAIR      28  19  69 N8        30.19R WCI  20
RACINE         FAIR      31  23  72 NW8       30.18R WCI  23
BURLINGTON     FAIR      27  21  76 NW5       30.19R WCI  22
KENOSHA        SLEET     31  22  69 NW9       30.16R WCI  23
FOND DU LAC    FLURRIES  24  14  65 NW6       30.21R WCI  17
SHEBOYGAN      FAIR      30  21  69 N9        30.18R WCI  22
WEST BEND      FAIR      27  21  80 NW6       30.19R WCI  20
JUNEAU         FAIR      22  15  74 NW6       30.22R WCI  15
$$

LSZ147-162-191200-
LAKE SUPERIOR

STATION/POSITION TIME  TEMP    WIND        PRES    WAVE
                       AIR SEA DIR/SP/G            HT/PER
                 (UTC) (F)     (DEG/KT/KT) (MB)    (FT/S)
DEVILS ISLAND    1100   36     360/ 10/ 11 1027.8R
SAXON HARBOR     1040   19     200/  6/  6 1026.1R
$$

LMZ867-665-643>646-191200-
LAKE MICHIGAN

STATION/POSITION TIME  TEMP    WIND        PRES    WAVE
                       AIR SEA DIR/SP/G            HT/PER
                 (UTC) (F)     (DEG/KT/KT) (MB)    (FT/S)
NORTHPORT PIER   1040   33                 1021.7R
KEWAUNEE LAKESHO 1048   32     340/  8/ 15 1021.1R
SHEBOYGAN LAKESH 1100   33     340/ 13/ 14 1022.6R
PORT WASHINGTON  1030   29     300/  7/ 11 1022.7R
MILWAUKEE LAKESH 1050   33     330/ 13/ 15   N/A
KENOSHA   LAKESH 1100   33                 1021.7
$$

TC  - TEMPERATURE IN CELSIUS
VSB - VISIBILITY IN STATUTE MILES
WCI - WIND CHILL INDEX
HX  - HEAT INDEX





USA.gov is the U.S. government's official web portal to all federal, state and local government web resources and services.